Theta_e
287 287 287 286 286 286 286 285 284 284 283 282 282 282 281 281 281 281 281 281 280 281 282 281 281 282 282 282 283 282 282 282 280 282 284 285 285 286 287 288 289 288 289
287 287 286 286 286 285 285 284 283 282 281 280 280 280 279 279 279 279 278 279 278 278 279 279 279 279 279 280 281 280 281 282 280 278 281 282 282 284 285 285 286 287 287
287 286 285 285 285 284 283 282 281 280 279 279 278 278 277 277 277 277 277 277 277 277 277 277 277 277 276 277 278 278 279 279 280 279 278 282 282 283 283 284 284 286 286
286 285 285 284 283 282 281 279 278 278 277 277 277 276 276 275 275 275 275 276 276 276 277 277 276 276 275 275 275 275 276 276 277 277 277 278 280 281 282 281 281 284 284
284 284 284 282 281 279 278 277 276 276 275 275 274 274 274 274 274 274 275 275 275 275 276 275 275 275 275 275 275 274 275 275 275 274 274 275 276 277 278 279 279 282 283
283 283 281 280 278 276 275 274 274 274 273 273 273 272 272 272 274 274 275 274 274 273 273 274 274 274 274 275 275 276 275 273 272 273 273 273 273 274 276 276 277 276 275
282 280 278 277 275 274 273 273 272 272 272 271 271 271 270 271 273 274 274 273 273 273 272 272 272 272 272 272 273 274 274 275 275 274 272 273 273 274 274 274 274 274 274
279 277 275 274 273 272 271 271 271 271 270 270 269 269 269 270 272 273 273 273 272 272 271 271 271 271 272 272 272 272 273 273 274 274 274 275 275 276 276 276 276 276 277
276 275 274 273 271 271 269 269 269 269 269 268 269 268 267 268 270 272 272 271 271 270 271 272 272 271 273 274 273 272 273 274 277 278 278 279 279 280 279 277 275 274 273
276 275 273 271 269 268 268 267 269 267 267 268 267 267 267 266 269 270 271 271 270 271 271 272 274 273 275 276 274 273 272 273 275 275 276 277 278 278 278 277 276 273 273
275 272 270 269 267 267 266 267 266 265 266 265 265 266 266 266 267 270 272 272 272 272 273 273 274 275 276 277 278 276 275 277 277 277 277 277 278 278 278 278 277 276 273
272 270 268 266 267 267 264 265 264 264 264 264 265 266 268 268 269 271 273 274 274 273 272 274 274 277 277 277 276 276 276 276 274 273 273 273 274 275 276 277 277 277 278
269 266 265 264 265 264 264 265 265 265 264 265 265 266 267 268 270 272 272 273 275 274 275 275 275 274 273 272 272 273 272 271 271 270 270 271 272 274 274 274 275 276 276
266 265 264 263 265 264 266 266 265 265 265 265 265 266 267 269 270 270 272 274 274 274 273 271 270 270 270 270 268 269 269 269 268 267 268 270 271 271 271 273 272 272 271
265 265 266 265 264 265 265 266 265 266 265 265 267 269 268 268 269 272 273 273 274 273 271 268 266 266 266 266 267 267 267 268 267 268 268 268 269 270 270 272 272 271 270
265 265 266 265 265 264 264 265 267 267 269 270 271 270 270 271 272 273 273 274 274 272 267 264 264 264 264 265 265 265 266 266 267 267 267 268 269 269 270 272 272 270 269
267 266 265 264 264 263 263 263 263 265 265 266 268 268 269 270 271 271 273 272 271 269 264 263 263 264 264 265 265 265 265 266 267 268 268 268 269 269 270 270 270 270 269
263 262 264 264 263 263 262 262 261 261 261 262 264 264 266 268 269 270 270 268 264 264 263 263 263 264 264 264 265 265 266 267 267 268 268 268 269 269 269 270 270 269 269
261 262 262 262 261 261 261 261 260 260 260 260 261 262 263 264 266 267 266 262 261 261 262 262 263 263 264 265 265 265 266 266 267 268 269 269 269 269 268 269 270 269 269
260 260 260 261 261 260 260 259 260 259 259 259 260 261 260 260 263 262 261 261 260 261 261 262 263 263 263 264 265 265 266 266 267 269 269 269 269 269 268 269 270 270 271
261 260 259 260 259 259 259 258 259 259 258 258 259 260 263 263 261 259 259 259 260 260 260 261 262 262 263 264 264 265 265 266 267 269 268 268 268 267 269 269 270 270 271
260 260 259 259 260 259 258 258 258 258 258 258 259 259 263 260 258 258 258 259 260 260 260 260 261 262 263 263 264 264 264 265 267 269 268 267 267 268 268 268 268 269 269
259 259 258 258 258 257 256 257 257 257 257 258 258 258 258 258 257 257 258 258 259 259 260 260 260 260 262 263 264 265 264 266 268 269 267 267 267 267 267 267 267 267 267
258 258 258 258 258 257 257 257 257 256 256 257 258 258 257 257 256 256 257 257 258 258 259 259 259 259 260 261 263 264 265 266 270 269 268 267 267 266 266 266 266 266 266
258 258 257 257 257 257 257 256 256 256 256 257 257 257 257 256 255 256 256 257 257 257 257 258 258 258 259 258 259 261 264 265 270 267 268 267 266 266 266 265 265 266 265
257 257 257 257 256 255 255 255 256 256 256 256 256 256 256 255 255 255 255 255 255 256 256 256 257 257 257 258 260 262 264 267 271 266 267 268 266 266 265 265 265 265 265
Wind_Speed
9 9 9 8 7 7 6 5 5 5 5 5 6 7 7 8 8 8 9 9 11 11 11 12 13 13 10 10 10 10 12 12 15 13 12 14 18 17 14 14 13 14 13
10 9 8 8 7 6 6 5 4 5 5 5 6 7 8 8 9 10 11 11 12 13 13 14 15 11 15 13 11 14 13 13 13 20 16 12 16 16 17 18 14 12 14
11 9 7 7 7 6 6 5 5 5 5 6 6 7 8 8 9 10 11 12 13 14 14 15 16 15 15 13 14 13 13 13 13 14 17 12 12 12 14 16 15 15 13
10 9 9 8 7 6 5 5 5 4 5 5 6 6 7 8 9 10 11 13 14 14 14 15 15 15 16 16 14 16 15 14 14 13 15 15 12 12 11 12 13 11 12
11 10 9 7 6 6 5 4 3 3 4 5 7 7 8 8 7 11 13 14 15 16 16 16 15 17 23 21 13 15 16 13 12 12 14 14 13 11 12 11 12 13 12
11 10 9 8 6 5 4 3 1 2 4 5 6 7 9 7 13 16 16 14 15 16 15 15 15 18 18 23 24 26 22 16 16 13 14 15 17 15 13 13 13 13 16
11 9 8 7 6 4 3 1 1 3 4 5 6 8 9 10 14 17 19 13 14 15 15 15 15 12 17 17 21 24 23 24 26 18 19 16 18 16 15 15 15 15 16
10 9 8 7 5 4 3 1 2 3 4 5 7 7 9 9 16 18 19 15 13 15 15 15 17 17 17 18 18 17 18 18 18 14 17 17 18 16 17 16 18 18 16
11 10 9 7 6 4 2 2 2 3 5 5 6 8 10 11 16 18 17 13 13 14 14 16 16 18 23 26 19 18 18 16 19 29 31 32 32 31 26 15 13 14 15
12 11 9 7 6 4 3 3 2 4 5 5 7 8 11 11 15 17 16 10 12 11 14 16 20 19 27 28 18 17 17 18 18 18 18 22 25 22 30 21 14 15 15
10 10 9 7 6 4 4 3 3 4 4 6 7 8 9 9 11 16 18 11 10 11 11 12 12 25 29 30 31 18 19 20 20 15 12 11 12 13 12 13 15 14 15
11 9 8 7 5 5 4 3 3 3 4 6 6 7 6 8 12 14 18 20 20 12 13 12 14 26 28 30 25 30 32 28 13 12 12 12 12 12 12 13 16 16 15
9 8 7 6 5 5 4 4 3 3 4 4 5 6 7 7 8 15 19 22 21 14 11 18 29 29 28 21 23 24 19 10 9 10 10 11 11 12 15 15 15 17 18
9 9 7 6 6 5 4 4 4 4 3 4 5 7 7 8 8 9 10 10 16 13 15 11 17 18 17 16 13 13 10 10 10 10 11 12 12 12 12 11 12 11 12
8 8 8 6 6 4 5 4 5 5 5 5 7 7 8 8 9 17 16 11 10 13 12 9 10 10 11 10 10 10 10 10 10 10 11 12 12 12 12 11 11 11 12
10 8 7 6 5 4 4 4 9 10 11 12 13 10 7 14 18 20 21 21 20 20 8 8 9 9 10 11 11 11 10 11 10 11 11 11 12 12 13 11 11 11 13
8 8 6 5 5 4 4 4 4 3 8 10 9 9 13 14 16 18 19 20 17 14 7 7 9 9 10 11 10 10 12 11 13 11 12 12 12 13 14 11 11 12 13
7 6 6 5 4 4 5 4 4 4 5 5 6 8 11 12 15 16 16 15 7 6 6 8 9 9 10 10 10 10 11 11 11 12 12 12 12 12 13 12 11 13 12
7 6 5 4 4 4 4 4 4 5 6 6 6 5 5 11 13 11 12 5 7 7 7 8 9 9 9 10 10 11 12 11 13 12 11 11 12 12 13 13 13 16 16
6 6 6 5 5 5 4 4 5 5 6 6 6 6 4 4 6 6 5 6 7 7 8 9 9 9 9 10 10 10 11 12 12 12 12 11 11 11 12 13 12 13 12
5 5 7 5 5 5 4 5 5 5 6 6 7 7 12 9 6 6 6 6 7 7 8 9 9 9 9 9 10 10 11 12 12 12 11 11 11 12 12 12 12 12 11
4 4 5 5 4 4 5 5 5 6 7 7 7 8 13 6 6 6 7 7 7 7 7 8 8 8 8 9 10 11 12 12 12 12 11 11 11 11 11 11 10 10 10
4 4 4 4 5 4 5 5 6 7 7 7 7 7 6 6 7 7 8 7 7 7 7 7 8 8 8 9 10 10 11 11 12 10 11 11 10 10 10 10 10 10 10
4 5 5 5 5 5 6 6 7 8 8 8 8 7 7 7 7 9 8 8 7 7 7 7 7 11 10 11 10 10 10 11 10 9 12 10 10 11 10 10 10 11 10
3 4 5 6 6 6 6 7 7 7 7 8 8 8 7 7 7 8 8 8 7 8 8 8 7 10 12 15 16 16 16 20 11 7 7 9 11 12 10 9 11 9 11
4 4 5 5 6 6 6 6 7 7 8 7 7 8 7 7 7 8 8 8 8 7 9 8 10 14 15 13 14 16 18 20 15 5 6 7 8 8 9 10 14 9 11
Wind_Direction
147 143 140 137 132 122 115 104 85 70 38 19 9 359 357 352 347 337 328 320 316 311 309 304 301 301 296 295 290 284 281 280 282 285 283 289 291 293 292 288 285 283 283
162 162 156 147 145 142 128 111 88 60 34 15 2 353 348 344 340 334 326 321 316 313 312 308 305 307 301 298 293 289 286 285 284 288 287 286 281 288 294 290 286 283 282
171 169 159 164 159 149 123 90 59 31 19 7 355 348 340 333 328 323 316 311 309 306 305 304 303 304 299 300 298 295 293 293 291 288 290 287 284 282 284 287 287 284 281
173 172 170 175 155 119 98 77 50 23 2 349 344 334 329 324 319 314 315 310 306 303 302 300 298 298 297 301 298 296 296 295 294 288 286 291 289 287 281 278 278 276 281
174 176 168 158 137 124 113 94 64 25 352 340 330 329 324 320 313 318 312 306 305 303 301 300 298 298 297 291 288 286 288 289 290 291 286 289 291 295 295 309 298 289 292
175 167 163 157 145 136 126 101 63 359 337 329 319 317 314 305 308 307 305 303 302 300 300 300 300 298 295 298 294 292 287 287 282 281 284 286 293 293 289 289 294 292 289
163 154 163 156 151 140 126 120 339 322 319 311 307 307 303 303 304 307 309 302 300 298 302 304 300 298 299 294 295 293 291 287 280 281 279 279 287 289 292 289 281 275 276
151 159 161 161 151 146 156 231 292 310 308 306 307 304 302 303 309 312 310 304 302 299 300 299 297 295 293 294 290 285 278 273 274 274 272 275 274 275 269 270 272 275 272
165 172 170 163 153 154 182 241 285 291 301 297 301 305 300 300 307 311 314 308 302 301 297 291 289 291 293 292 283 276 275 275 273 273 273 274 275 276 276 278 274 278 278
176 173 162 153 151 164 197 234 247 283 292 298 300 298 294 296 305 312 315 303 301 296 290 288 284 282 285 293 290 284 279 275 273 271 269 270 271 269 271 269 274 271 274
157 150 151 151 157 174 193 222 256 282 292 296 291 294 290 290 298 307 307 304 296 297 301 299 292 294 295 292 288 280 276 279 284 288 290 285 280 270 266 259 257 257 263
151 152 153 156 177 173 194 218 243 264 279 290 297 301 300 304 298 301 304 310 310 304 295 293 293 301 314 314 312 307 304 305 304 298 293 291 290 286 284 281 276 267 258
148 152 162 168 180 182 202 217 248 237 265 293 301 303 307 306 301 310 306 306 307 301 305 314 320 316 316 314 309 310 312 304 302 297 294 293 292 293 292 287 282 279 277
156 167 170 185 185 191 212 216 229 241 259 282 288 295 300 308 313 314 299 306 310 321 329 326 319 322 320 315 314 319 315 309 306 295 290 290 291 289 284 283 282 280 279
166 173 181 189 196 199 223 227 230 236 230 246 265 287 302 305 307 303 316 314 318 333 338 325 324 327 326 324 321 317 314 311 307 299 294 292 290 287 282 280 275 277 272
173 180 185 188 191 207 220 252 241 256 265 270 282 284 293 299 302 309 312 321 332 332 330 318 320 321 320 319 317 313 311 308 306 302 296 292 290 293 290 289 280 271 271
179 175 174 193 197 207 218 234 263 231 269 275 270 284 301 291 311 310 316 323 336 327 311 315 312 316 316 314 313 311 310 310 306 296 300 299 297 294 297 291 283 277 273
174 165 178 187 201 211 223 236 255 271 281 282 258 284 292 307 308 308 325 331 320 318 305 309 307 310 312 311 310 310 306 307 305 304 303 302 300 297 299 290 285 282 278
177 180 187 193 201 213 224 232 246 259 267 275 288 277 292 307 305 313 325 308 306 305 310 307 306 306 307 306 305 307 307 307 306 301 303 304 303 301 297 295 290 283 278
185 181 184 194 202 212 218 235 248 254 262 271 277 279 299 300 287 308 307 301 298 300 303 301 302 305 304 303 307 308 311 313 310 309 318 311 308 304 300 300 299 299 295
181 181 201 205 213 218 224 235 247 253 259 264 268 276 277 285 301 287 288 285 285 289 293 298 301 304 303 303 306 309 311 310 311 318 321 317 313 310 309 306 304 306 306
191 196 198 221 223 226 234 238 246 250 257 263 272 277 291 296 278 276 275 276 280 286 289 295 298 302 300 301 305 306 306 307 312 329 323 319 317 317 317 316 320 322 325
191 213 219 227 235 242 247 247 249 250 256 260 267 272 273 274 276 278 279 281 283 289 294 295 297 298 299 297 301 299 302 307 310 330 324 322 324 326 326 328 329 334 337
196 211 233 243 243 245 251 255 255 253 260 265 265 265 265 265 269 276 279 281 285 288 290 288 286 291 294 299 301 303 302 307 311 326 328 328 332 334 335 335 336 341 339
213 226 237 248 253 260 266 259 261 262 261 261 264 264 265 263 265 269 274 276 278 284 285 286 285 288 294 298 296 299 307 313 314 330 331 332 337 343 343 343 346 350 358
225 234 244 247 250 255 257 262 262 261 261 261 261 262 265 266 266 270 273 272 278 281 286 283 283 287 291 294 294 305 311 313 313 337 335 336 341 346 349 353 354 358 1